Time,TemperatureF,DewpointF,PressureIn,WindDirection,WindDirectionDegrees,WindSpeedMPH,WindSpeedGustMPH,Humidity,HourlyPrecipIn,Conditions,Clouds,dailyrainin,SoftwareType,DateUTC
2013-03-24 00:14:00,26.5,19.0,29.93,WNW,301,4.0,10.0,74,0.00,,,0.00,weatherlink.com 1.10,2013-03-24 04:14:00,
2013-03-24 00:29:00,26.5,20.0,29.93,WSW,247,5.0,12.0,75,0.00,,,0.00,weatherlink.com 1.10,2013-03-24 04:29:00,
2013-03-24 00:45:00,26.5,20.0,29.93,NW,319,3.0,8.0,75,0.00,,,0.00,weatherlink.com 1.10,2013-03-24 04:45:00,
2013-03-24 00:59:00,26.5,20.0,29.92,NW,310,5.0,11.0,75,0.00,,,0.00,weatherlink.com 1.10,2013-03-24 04:59:00,
2013-03-24 01:14:00,26.4,20.0,29.93,NW,317,6.0,11.0,76,0.00,,,0.00,weatherlink.com 1.10,2013-03-24 05:14:00,
2013-03-24 01:29:00,26.4,20.0,29.92,WNW,296,5.0,10.0,76,0.00,,,0.00,weatherlink.com 1.10,2013-03-24 05:29:00,
2013-03-24 01:44:00,26.3,20.0,29.92,North,360,7.0,11.0,76,0.00,,,0.00,weatherlink.com 1.10,2013-03-24 05:44:00,
2013-03-24 01:59:00,26.1,20.0,29.92,NW,319,6.0,10.0,77,0.00,,,0.00,weatherlink.com 1.10,2013-03-24 05:59:00,
2013-03-24 02:14:00,26.0,20.0,29.92,NW,317,2.0,7.0,77,0.00,,,0.00,weatherlink.com 1.10,2013-03-24 06:14:00,
2013-03-24 02:29:00,26.1,20.0,29.90,NW,313,6.0,11.0,77,0.00,,,0.00,weatherlink.com 1.10,2013-03-24 06:29:00,
2013-03-24 02:45:00,26.1,20.0,29.90,NW,307,6.0,9.0,77,0.00,,,0.00,weatherlink.com 1.10,2013-03-24 06:45:00,
2013-03-24 03:00:00,26.0,20.0,29.89,NNW,339,9.0,13.0,78,0.00,,,0.00,weatherlink.com 1.10,2013-03-24 07:00:00,
2013-03-24 03:15:00,26.0,20.0,29.88,WNW,301,6.0,14.0,78,0.00,,,0.00,weatherlink.com 1.10,2013-03-24 07:15:00,
2013-03-24 03:31:00,26.0,20.0,29.89,NNW,333,4.0,14.0,78,0.00,,,0.00,weatherlink.com 1.10,2013-03-24 07:31:00,
2013-03-24 03:45:00,25.9,20.0,29.88,NNW,346,5.0,9.0,78,0.00,,,0.00,weatherlink.com 1.10,2013-03-24 07:45:00,
2013-03-24 04:00:00,25.6,20.0,29.86,NW,320,6.0,10.0,78,0.00,,,0.00,weatherlink.com 1.10,2013-03-24 08:00:00,
2013-03-24 04:15:00,25.0,19.0,29.86,NW,309,6.0,11.0,78,0.00,,,0.00,weatherlink.com 1.10,2013-03-24 08:15:00,
2013-03-24 04:30:00,24.5,19.0,29.89,WNW,298,3.0,6.0,79,0.00,,,0.00,weatherlink.com 1.10,2013-03-24 08:30:00,
2013-03-24 04:45:00,23.4,18.0,29.89,WNW,298,3.0,3.0,80,0.00,,,0.00,weatherlink.com 1.10,2013-03-24 08:45:00,
2013-03-24 05:12:00,20.5,16.0,29.90,WNW,298,2.0,4.0,83,0.00,,,0.00,weatherlink.com 1.10,2013-03-24 09:12:00,
2013-03-24 05:31:00,21.0,17.0,29.90,NW,318,2.0,5.0,85,0.00,,,0.00,weatherlink.com 1.10,2013-03-24 09:31:00,
2013-03-24 05:46:00,22.1,18.0,29.90,NW,318,2.0,3.0,84,0.00,,,0.00,weatherlink.com 1.10,2013-03-24 09:46:00,
2013-03-24 06:16:00,22.4,18.0,29.90,NW,326,5.0,6.0,82,0.00,,,0.00,weatherlink.com 1.10,2013-03-24 10:16:00,
2013-03-24 06:31:00,23.8,19.0,29.91,NW,322,5.0,7.0,80,0.00,,,0.00,weatherlink.com 1.10,2013-03-24 10:31:00,
2013-03-24 06:46:00,24.0,18.0,29.90,NW,305,3.0,5.0,79,0.00,,,0.00,weatherlink.com 1.10,2013-03-24 10:46:00,
2013-03-24 07:01:00,24.9,19.0,29.90,NNW,335,5.0,7.0,77,0.00,,,0.00,weatherlink.com 1.10,2013-03-24 11:01:00,
2013-03-24 07:16:00,24.8,18.0,29.90,WNW,288,3.0,9.0,76,0.00,,,0.00,weatherlink.com 1.10,2013-03-24 11:16:00,
2013-03-24 07:32:00,25.3,18.0,29.90,NW,314,3.0,11.0,74,0.00,,,0.00,weatherlink.com 1.10,2013-03-24 11:32:00,
2013-03-24 07:47:00,25.6,18.0,29.91,NW,315,4.0,8.0,74,0.00,,,0.00,weatherlink.com 1.10,2013-03-24 11:47:00,
2013-03-24 08:02:00,25.9,18.0,29.92,NNW,333,4.0,9.0,73,0.00,,,0.00,weatherlink.com 1.10,2013-03-24 12:02:00,
2013-03-24 08:17:00,26.1,19.0,29.93,NW,320,4.0,11.0,73,0.00,,,0.00,weatherlink.com 1.10,2013-03-24 12:17:00,
2013-03-24 08:32:00,26.4,19.0,29.93,NW,310,6.0,13.0,72,0.00,,,0.00,weatherlink.com 1.10,2013-03-24 12:32:00,
2013-03-24 08:47:00,26.5,19.0,29.94,NW,309,8.0,14.0,73,0.00,,,0.00,weatherlink.com 1.10,2013-03-24 12:47:00,
2013-03-24 09:02:00,26.6,19.0,29.93,NNW,331,8.0,12.0,72,0.00,,,0.00,weatherlink.com 1.10,2013-03-24 13:02:00,
2013-03-24 09:17:00,26.7,19.0,29.93,NNW,343,6.0,14.0,72,0.00,,,0.00,weatherlink.com 1.10,2013-03-24 13:17:00,
2013-03-24 09:33:00,26.9,19.0,29.92,NW,323,7.0,11.0,71,0.00,,,0.00,weatherlink.com 1.10,2013-03-24 13:33:00,
2013-03-24 09:48:00,27.0,19.0,29.92,NW,306,5.0,16.0,71,0.00,,,0.00,weatherlink.com 1.10,2013-03-24 13:48:00,
2013-03-24 10:03:00,27.4,19.0,29.92,NNW,329,8.0,13.0,71,0.00,,,0.00,weatherlink.com 1.10,2013-03-24 14:03:00,
2013-03-24 10:18:00,27.5,19.0,29.92,NNW,329,10.0,15.0,70,0.00,,,0.00,weatherlink.com 1.10,2013-03-24 14:18:00,
2013-03-24 10:33:00,27.3,19.0,29.91,WNW,302,11.0,15.0,71,0.00,,,0.00,weatherlink.com 1.10,2013-03-24 14:33:00,
2013-03-24 10:48:00,27.6,20.0,29.92,North,360,9.0,14.0,72,0.00,,,0.00,weatherlink.com 1.10,2013-03-24 14:48:00,
2013-03-24 11:03:00,27.6,20.0,29.93,NNW,348,10.0,13.0,72,0.00,,,0.00,weatherlink.com 1.10,2013-03-24 15:03:00,
2013-03-24 11:18:00,27.7,20.0,29.93,NW,306,3.0,12.0,73,0.00,,,0.00,weatherlink.com 1.10,2013-03-24 15:18:00,
2013-03-24 11:33:00,28.1,20.0,29.92,WNW,288,8.0,12.0,72,0.00,,,0.00,weatherlink.com 1.10,2013-03-24 15:33:00,
2013-03-24 11:48:00,28.1,20.0,29.92,NW,309,13.0,13.0,72,0.00,,,0.00,weatherlink.com 1.10,2013-03-24 15:48:00,
2013-03-24 12:04:00,28.4,20.0,29.90,NW,325,10.0,10.0,71,0.00,,,0.00,weatherlink.com 1.10,2013-03-24 16:04:00,
2013-03-24 12:20:00,28.9,20.0,29.89,NNW,335,7.0,12.0,70,0.00,,,0.00,weatherlink.com 1.10,2013-03-24 16:20:00,
2013-03-24 12:34:00,30.0,20.0,29.88,WNW,296,15.0,15.0,67,0.00,,,0.00,weatherlink.com 1.10,2013-03-24 16:34:00,
2013-03-24 12:49:00,30.1,20.0,29.88,NW,311,7.0,15.0,66,0.00,,,0.00,weatherlink.com 1.10,2013-03-24 16:49:00,
2013-03-24 13:04:00,30.4,20.0,29.86,NNE,28,4.0,11.0,65,0.00,,,0.00,weatherlink.com 1.10,2013-03-24 17:04:00,
2013-03-24 13:19:00,32.1,21.0,29.86,ENE,64,7.0,15.0,63,0.00,,,0.00,weatherlink.com 1.10,2013-03-24 17:19:00,
2013-03-24 13:34:00,32.0,20.0,29.85,NNW,346,9.0,13.0,62,0.00,,,0.00,weatherlink.com 1.10,2013-03-24 17:34:00,
2013-03-24 13:49:00,32.5,21.0,29.84,WNW,298,7.0,10.0,63,0.01,,,0.01,weatherlink.com 1.10,2013-03-24 17:49:00,
2013-03-24 14:05:00,33.2,21.0,29.84,NNW,327,4.0,11.0,60,0.01,,,0.01,weatherlink.com 1.10,2013-03-24 18:05:00,
2013-03-24 14:20:00,32.9,21.0,29.82,NW,323,6.0,16.0,61,0.01,,,0.01,weatherlink.com 1.10,2013-03-24 18:20:00,
2013-03-24 14:35:00,33.8,21.0,29.81,North,5,5.0,16.0,59,0.01,,,0.01,weatherlink.com 1.10,2013-03-24 18:35:00,
2013-03-24 14:50:00,34.6,21.0,29.80,NNE,13,2.0,13.0,59,0.00,,,0.01,weatherlink.com 1.10,2013-03-24 18:50:00,
2013-03-24 15:07:00,34.2,21.0,29.80,NNW,330,11.0,12.0,60,0.00,,,0.01,weatherlink.com 1.10,2013-03-24 19:07:00,
2013-03-24 15:20:00,34.4,22.0,29.79,NNW,344,2.0,13.0,61,0.00,,,0.01,weatherlink.com 1.10,2013-03-24 19:20:00,
2013-03-24 15:35:00,36.0,21.0,29.78,NW,320,9.0,11.0,55,0.00,,,0.01,weatherlink.com 1.10,2013-03-24 19:35:00,
2013-03-24 15:50:00,35.4,21.0,29.77,East,90,6.0,11.0,56,0.00,,,0.01,weatherlink.com 1.10,2013-03-24 19:50:00,
2013-03-24 16:05:00,35.3,21.0,29.76,North,350,5.0,14.0,56,0.00,,,0.01,weatherlink.com 1.10,2013-03-24 20:05:00,
2013-03-24 16:21:00,35.6,22.0,29.75,WNW,295,2.0,7.0,57,0.00,,,0.01,weatherlink.com 1.10,2013-03-24 20:21:00,
2013-03-24 16:36:00,35.3,21.0,29.75,NW,318,7.0,12.0,56,0.00,,,0.01,weatherlink.com 1.10,2013-03-24 20:36:00,
2013-03-24 17:21:00,34.8,21.0,29.76,ESE,105,3.0,10.0,58,0.00,,,0.01,weatherlink.com 1.10,2013-03-24 21:21:00,
2013-03-24 17:36:00,34.4,21.0,29.76,NNW,331,6.0,9.0,59,0.00,,,0.01,weatherlink.com 1.10,2013-03-24 21:36:00,
2013-03-24 17:51:00,33.6,21.0,29.75,NNW,327,8.0,11.0,60,0.00,,,0.01,weatherlink.com 1.10,2013-03-24 21:51:00,
2013-03-24 18:06:00,33.6,21.0,29.75,WNW,296,2.0,12.0,61,0.00,,,0.01,weatherlink.com 1.10,2013-03-24 22:06:00,
2013-03-24 18:21:00,33.1,21.0,29.75,NNW,334,7.0,10.0,62,0.00,,,0.01,weatherlink.com 1.10,2013-03-24 22:21:00,
2013-03-24 18:37:00,33.1,22.0,29.75,NW,326,4.0,6.0,63,0.00,,,0.01,weatherlink.com 1.10,2013-03-24 22:37:00,
2013-03-24 18:52:00,32.9,21.0,29.76,NW,321,4.0,5.0,62,0.00,,,0.01,weatherlink.com 1.10,2013-03-24 22:52:00,
2013-03-24 19:08:00,32.3,20.0,29.76,NW,321,2.0,6.0,62,0.00,,,0.01,weatherlink.com 1.10,2013-03-24 23:08:00,
2013-03-24 19:22:00,31.9,20.0,29.76,WNW,286,3.0,7.0,63,0.00,,,0.01,weatherlink.com 1.10,2013-03-24 23:22:00,
2013-03-24 19:37:00,31.5,21.0,29.75,WNW,297,3.0,6.0,65,0.00,,,0.01,weatherlink.com 1.10,2013-03-24 23:37:00,
2013-03-24 19:52:00,31.5,21.0,29.75,WNW,290,5.0,6.0,65,0.00,,,0.01,weatherlink.com 1.10,2013-03-24 23:52:00,
2013-03-24 20:07:00,31.3,21.0,29.75,NW,311,3.0,5.0,66,0.00,,,0.01,weatherlink.com 1.10,2013-03-25 00:07:00,
2013-03-24 20:22:00,31.3,21.0,29.75,WSW,254,0.0,5.0,66,0.00,,,0.01,weatherlink.com 1.10,2013-03-25 00:22:00,
2013-03-24 20:37:00,30.6,21.0,29.75,WSW,254,0.0,0.0,68,0.00,,,0.01,weatherlink.com 1.10,2013-03-25 00:37:00,
2013-03-24 20:52:00,29.5,22.0,29.77,WSW,254,0.0,1.0,72,0.00,,,0.01,weatherlink.com 1.10,2013-03-25 00:52:00,
2013-03-24 21:07:00,28.8,22.0,29.78,WSW,254,0.0,2.0,74,0.00,,,0.01,weatherlink.com 1.10,2013-03-25 01:07:00,
2013-03-24 21:22:00,28.2,22.0,29.77,WSW,254,0.0,1.0,77,0.00,,,0.01,weatherlink.com 1.10,2013-03-25 01:22:00,
2013-03-24 21:37:00,27.9,22.0,29.77,WSW,254,0.0,2.0,77,0.00,,,0.01,weatherlink.com 1.10,2013-03-25 01:37:00,
2013-03-24 21:53:00,29.2,22.0,29.78,WSW,248,0.0,2.0,73,0.00,,,0.01,weatherlink.com 1.10,2013-03-25 01:53:00,
2013-03-24 22:08:00,28.6,22.0,29.77,WSW,248,0.0,0.0,75,0.00,,,0.01,weatherlink.com 1.10,2013-03-25 02:08:00,
2013-03-24 22:23:00,28.2,21.0,29.77,WSW,248,0.0,2.0,75,0.00,,,0.01,weatherlink.com 1.10,2013-03-25 02:23:00,
2013-03-24 22:39:00,28.9,22.0,29.76,ESE,116,0.0,5.0,74,0.00,,,0.01,weatherlink.com 1.10,2013-03-25 02:39:00,
2013-03-24 22:53:00,29.1,22.0,29.76,ESE,119,0.0,2.0,74,0.00,,,0.01,weatherlink.com 1.10,2013-03-25 02:53:00,
2013-03-24 23:08:00,29.0,21.0,29.75,SE,126,1.0,3.0,73,0.00,,,0.01,weatherlink.com 1.10,2013-03-25 03:08:00,
2013-03-24 23:23:00,28.8,21.0,29.75,SE,126,0.0,2.0,73,0.00,,,0.01,weatherlink.com 1.10,2013-03-25 03:23:00,
2013-03-24 23:38:00,29.4,22.0,29.73,South,183,0.0,7.0,73,0.00,,,0.01,weatherlink.com 1.10,2013-03-25 03:38:00,
2013-03-24 23:53:00,29.6,22.0,29.73,SSE,150,4.0,6.0,72,0.00,,,0.01,weatherlink.com 1.10,2013-03-25 03:53:00,